Year,Month,Day,Hour,Minute,Value (Times are PST for temperature in C)
2006,07,22,00,00,22.70
2006,07,22,00,01,22.70
2006,07,22,00,02,22.70
2006,07,22,00,03,22.70
2006,07,22,00,04,22.60
2006,07,22,00,05,22.60
2006,07,22,00,06,22.60
2006,07,22,00,07,22.60
2006,07,22,00,08,22.60
2006,07,22,00,09,22.60
2006,07,22,00,10,22.60
2006,07,22,00,11,22.50
2006,07,22,00,12,22.50
2006,07,22,00,13,22.50
2006,07,22,00,14,22.50
2006,07,22,00,15,22.40
2006,07,22,00,16,22.40
2006,07,22,00,17,22.40
2006,07,22,00,18,22.40
2006,07,22,00,19,22.40
2006,07,22,00,20,22.30
2006,07,22,00,21,22.30
2006,07,22,00,22,22.30
2006,07,22,00,23,22.30
2006,07,22,00,24,22.20
2006,07,22,00,25,22.20
2006,07,22,00,26,22.20
2006,07,22,00,27,22.20
2006,07,22,00,28,22.10
2006,07,22,00,29,22.10
2006,07,22,00,30,22.00
2006,07,22,00,31,22.00
2006,07,22,00,32,22.00
2006,07,22,00,33,21.90
2006,07,22,00,34,21.90
2006,07,22,00,35,21.80
2006,07,22,00,36,21.80
2006,07,22,00,37,21.70
2006,07,22,00,38,21.70
2006,07,22,00,39,21.70
2006,07,22,00,40,21.70
2006,07,22,00,41,21.70
2006,07,22,00,42,21.60
2006,07,22,00,43,21.60
2006,07,22,00,44,21.70
2006,07,22,00,45,21.70
2006,07,22,00,46,21.70
2006,07,22,00,47,21.70
2006,07,22,00,48,21.70
2006,07,22,00,49,21.70
2006,07,22,00,50,21.70
2006,07,22,00,51,21.70
2006,07,22,00,52,21.70
2006,07,22,00,53,21.60
2006,07,22,00,54,21.60
2006,07,22,00,55,21.60
2006,07,22,00,56,21.60
2006,07,22,00,57,21.60
2006,07,22,00,58,21.60
2006,07,22,00,59,21.60
2006,07,22,01,00,21.60
2006,07,22,01,01,21.60
2006,07,22,01,02,21.60
2006,07,22,01,03,21.60
2006,07,22,01,04,21.60
2006,07,22,01,05,21.60
2006,07,22,01,06,21.60
2006,07,22,01,07,21.60
2006,07,22,01,08,21.60
2006,07,22,01,09,21.60
2006,07,22,01,10,21.60
2006,07,22,01,11,21.60
2006,07,22,01,12,21.60
2006,07,22,01,13,21.60
2006,07,22,01,14,21.60
2006,07,22,01,15,21.60
2006,07,22,01,16,21.60
2006,07,22,01,17,21.60
2006,07,22,01,18,21.70
2006,07,22,01,19,21.70
2006,07,22,01,20,21.70
2006,07,22,01,21,21.80
2006,07,22,01,22,21.80
2006,07,22,01,23,21.80
2006,07,22,01,24,21.80
2006,07,22,01,25,21.80
2006,07,22,01,26,21.70
2006,07,22,01,27,21.70
2006,07,22,01,28,21.70
2006,07,22,01,29,21.60
2006,07,22,01,30,21.60
2006,07,22,01,31,21.60
2006,07,22,01,32,21.60
2006,07,22,01,33,21.60
2006,07,22,01,34,21.60
2006,07,22,01,35,21.60
2006,07,22,01,36,21.60
2006,07,22,01,37,21.60
2006,07,22,01,38,21.60
2006,07,22,01,39,21.60
2006,07,22,01,40,21.60
2006,07,22,01,41,21.60
2006,07,22,01,42,21.60
2006,07,22,01,43,21.60
2006,07,22,01,44,21.60
2006,07,22,01,45,21.60
2006,07,22,01,46,21.60
2006,07,22,01,47,21.70
2006,07,22,01,48,21.70
2006,07,22,01,49,21.70
2006,07,22,01,50,21.80
2006,07,22,01,51,21.80
2006,07,22,01,52,21.80
2006,07,22,01,53,21.80
2006,07,22,01,54,21.70
2006,07,22,01,55,21.70
2006,07,22,01,56,21.70
2006,07,22,01,57,21.70
2006,07,22,01,58,21.70
2006,07,22,01,59,21.60
2006,07,22,02,00,21.60
2006,07,22,02,01,21.60
2006,07,22,02,02,21.60
2006,07,22,02,03,21.50
2006,07,22,02,04,21.40
2006,07,22,02,05,21.40
2006,07,22,02,06,21.30
2006,07,22,02,07,21.30
2006,07,22,02,08,21.30
2006,07,22,02,09,21.30
2006,07,22,02,10,21.20
2006,07,22,02,11,21.20
2006,07,22,02,12,21.10
2006,07,22,02,13,21.10
2006,07,22,02,14,21.00
2006,07,22,02,15,21.00
2006,07,22,02,16,21.00
2006,07,22,02,17,20.90
2006,07,22,02,18,20.90
2006,07,22,02,19,20.90
2006,07,22,02,20,20.80
2006,07,22,02,21,20.80
2006,07,22,02,22,20.80
2006,07,22,02,23,20.70
2006,07,22,02,24,20.70
2006,07,22,02,25,20.70
2006,07,22,02,26,20.70
2006,07,22,02,27,20.60
2006,07,22,02,28,20.60
2006,07,22,02,29,20.50
2006,07,22,02,30,20.50
2006,07,22,02,31,20.50
2006,07,22,02,32,20.50
2006,07,22,02,33,20.50
2006,07,22,02,34,20.40
2006,07,22,02,35,20.40
2006,07,22,02,36,20.40
2006,07,22,02,37,20.40
2006,07,22,02,38,20.40
2006,07,22,02,39,20.40
2006,07,22,02,40,20.40
2006,07,22,02,41,20.50
2006,07,22,02,42,20.50
2006,07,22,02,43,20.50
2006,07,22,02,44,20.50
2006,07,22,02,45,20.50
2006,07,22,02,46,20.50
2006,07,22,02,47,20.50
2006,07,22,02,48,20.50
2006,07,22,02,49,20.50
2006,07,22,02,50,20.40
2006,07,22,02,51,20.40
2006,07,22,02,52,20.40
2006,07,22,02,53,20.40
2006,07,22,02,54,20.40
2006,07,22,02,55,20.50
2006,07,22,02,56,20.50
2006,07,22,02,57,20.50
2006,07,22,02,58,20.50
2006,07,22,02,59,20.60
2006,07,22,03,00,20.60
2006,07,22,03,01,20.60
2006,07,22,03,02,20.60
2006,07,22,03,03,20.70
2006,07,22,03,04,20.70
2006,07,22,03,05,20.70
2006,07,22,03,06,20.70
2006,07,22,03,07,20.70
2006,07,22,03,08,20.70
2006,07,22,03,09,20.70
2006,07,22,03,10,20.80
2006,07,22,03,11,20.80
2006,07,22,03,12,20.80
2006,07,22,03,13,20.80
2006,07,22,03,14,20.80
2006,07,22,03,15,20.90
2006,07,22,03,16,20.90
2006,07,22,03,17,20.90
2006,07,22,03,18,20.90
2006,07,22,03,19,20.90
2006,07,22,03,20,20.90
2006,07,22,03,21,20.90
2006,07,22,03,22,20.90
2006,07,22,03,23,20.90
2006,07,22,03,24,21.00
2006,07,22,03,25,21.00
2006,07,22,03,26,21.00
2006,07,22,03,27,21.10
2006,07,22,03,28,21.10
2006,07,22,03,29,21.10
2006,07,22,03,30,21.10
2006,07,22,03,31,21.10
2006,07,22,03,32,21.10
2006,07,22,03,33,21.10
2006,07,22,03,34,21.10
2006,07,22,03,35,21.10
2006,07,22,03,36,21.10
2006,07,22,03,37,21.10
2006,07,22,03,38,21.10
2006,07,22,03,39,21.20
2006,07,22,03,40,21.20
2006,07,22,03,41,21.20
2006,07,22,03,42,21.20
2006,07,22,03,43,21.20
2006,07,22,03,44,21.30
2006,07,22,03,45,21.30
2006,07,22,03,46,21.30
2006,07,22,03,47,21.30
2006,07,22,03,48,21.20
2006,07,22,03,49,21.20
2006,07,22,03,50,21.20
2006,07,22,03,51,21.10
2006,07,22,03,52,21.10
2006,07,22,03,53,21.10
2006,07,22,03,54,21.00
2006,07,22,03,55,21.00
2006,07,22,03,56,21.00
2006,07,22,03,57,21.00
2006,07,22,03,58,20.90
2006,07,22,03,59,20.90
2006,07,22,04,00,20.90
2006,07,22,04,01,20.90
2006,07,22,04,02,20.90
2006,07,22,04,03,20.90
2006,07,22,04,04,21.00
2006,07,22,04,05,21.00
2006,07,22,04,06,21.00
2006,07,22,04,07,21.00
2006,07,22,04,08,21.00
2006,07,22,04,09,21.00
2006,07,22,04,10,21.00
2006,07,22,04,11,21.10
2006,07,22,04,12,21.10
2006,07,22,04,13,21.10
2006,07,22,04,14,21.20
2006,07,22,04,15,21.20
2006,07,22,04,16,21.20
2006,07,22,04,17,21.20
2006,07,22,04,18,21.20
2006,07,22,04,19,21.20
2006,07,22,04,20,21.20
2006,07,22,04,21,21.20
2006,07,22,04,22,21.20
2006,07,22,04,23,21.20
2006,07,22,04,24,21.20
2006,07,22,04,25,21.20
2006,07,22,04,26,21.20
2006,07,22,04,27,21.20
2006,07,22,04,28,21.20
2006,07,22,04,29,21.10
2006,07,22,04,30,21.10
2006,07,22,04,31,21.10
2006,07,22,04,32,21.10
2006,07,22,04,33,21.00
2006,07,22,04,34,21.00
2006,07,22,04,35,21.00
2006,07,22,04,36,21.00
2006,07,22,04,37,20.90
2006,07,22,04,38,20.90
2006,07,22,04,39,20.80
2006,07,22,04,40,20.80
2006,07,22,04,41,20.80
2006,07,22,04,42,20.70
2006,07,22,04,43,20.70
2006,07,22,04,44,20.60
2006,07,22,04,45,20.60
2006,07,22,04,46,20.60
2006,07,22,04,47,20.50
2006,07,22,04,48,20.50
2006,07,22,04,49,20.50
2006,07,22,04,50,20.50
2006,07,22,04,51,20.40
2006,07,22,04,52,20.40
2006,07,22,04,53,20.40
2006,07,22,04,54,20.30
2006,07,22,04,55,20.30
2006,07,22,04,56,20.30
2006,07,22,04,57,20.20
2006,07,22,04,58,20.20
2006,07,22,04,59,20.20
2006,07,22,05,00,20.20
2006,07,22,05,01,20.20
2006,07,22,05,02,20.20
2006,07,22,05,03,20.20
2006,07,22,05,04,20.10
2006,07,22,05,05,20.10
2006,07,22,05,06,20.10
2006,07,22,05,07,20.10
2006,07,22,05,08,20.10
2006,07,22,05,09,20.00
2006,07,22,05,10,19.90
2006,07,22,05,11,19.90
2006,07,22,05,12,19.90
2006,07,22,05,13,19.90
2006,07,22,05,14,19.90
2006,07,22,05,15,19.90
2006,07,22,05,16,19.90
2006,07,22,05,17,19.90
2006,07,22,05,18,19.90
2006,07,22,05,19,19.90
2006,07,22,05,20,19.90
2006,07,22,05,21,19.90
2006,07,22,05,22,19.90
2006,07,22,05,23,19.90
2006,07,22,05,24,19.90
2006,07,22,05,25,19.80
2006,07,22,05,26,19.80
2006,07,22,05,27,19.80
2006,07,22,05,28,19.80
2006,07,22,05,29,19.80
2006,07,22,05,30,19.80
2006,07,22,05,31,19.80
2006,07,22,05,32,19.80
2006,07,22,05,33,19.80
2006,07,22,05,34,19.80
2006,07,22,05,35,19.90
2006,07,22,05,36,19.90
2006,07,22,05,37,19.90
2006,07,22,05,38,19.90
2006,07,22,05,39,19.90
2006,07,22,05,40,19.90
2006,07,22,05,41,19.90
2006,07,22,05,42,19.90
2006,07,22,05,43,19.90
2006,07,22,05,44,19.90
2006,07,22,05,45,19.80
2006,07,22,05,46,19.80
2006,07,22,05,47,19.70
2006,07,22,05,48,19.70
2006,07,22,05,49,19.70
2006,07,22,05,50,19.60
2006,07,22,05,51,19.60
2006,07,22,05,52,19.50
2006,07,22,05,53,19.50
2006,07,22,05,54,19.40
2006,07,22,05,55,19.40
2006,07,22,05,56,19.30
2006,07,22,05,57,19.30
2006,07,22,05,58,19.20
2006,07,22,05,59,19.10
2006,07,22,06,00,19.10
2006,07,22,06,01,19.00
2006,07,22,06,02,18.90
2006,07,22,06,03,18.90
2006,07,22,06,04,18.90
2006,07,22,06,05,18.80
2006,07,22,06,06,18.80
2006,07,22,06,07,18.70
2006,07,22,06,08,18.70
2006,07,22,06,09,18.60
2006,07,22,06,10,18.60
2006,07,22,06,11,18.60
2006,07,22,06,12,18.50
2006,07,22,06,13,18.50
2006,07,22,06,14,18.50
2006,07,22,06,15,18.50
2006,07,22,06,16,18.40
2006,07,22,06,17,18.40
2006,07,22,06,18,18.40
2006,07,22,06,19,18.40
2006,07,22,06,20,18.40
2006,07,22,06,21,18.50
2006,07,22,06,22,18.50
2006,07,22,06,23,18.50
2006,07,22,06,24,18.50
2006,07,22,06,25,18.60
2006,07,22,06,26,18.60
2006,07,22,06,27,18.60
2006,07,22,06,28,18.60
2006,07,22,06,29,18.60
2006,07,22,06,30,18.60
2006,07,22,06,31,18.60
2006,07,22,06,32,18.70
2006,07,22,06,33,18.70
2006,07,22,06,34,18.70
2006,07,22,06,35,18.70
2006,07,22,06,36,18.70
2006,07,22,06,37,18.70
2006,07,22,06,38,18.80
2006,07,22,06,39,18.80
2006,07,22,06,40,18.80
2006,07,22,06,41,18.80
2006,07,22,06,42,18.80
2006,07,22,06,43,18.90
2006,07,22,06,44,18.90
2006,07,22,06,45,18.90
2006,07,22,06,46,18.90
2006,07,22,06,47,18.90
2006,07,22,06,48,18.90
2006,07,22,06,49,19.00
2006,07,22,06,50,19.10
2006,07,22,06,51,19.10
2006,07,22,06,52,19.10
2006,07,22,06,53,19.10
2006,07,22,06,54,19.20
2006,07,22,06,55,19.30
2006,07,22,06,56,19.40
2006,07,22,06,57,19.40
2006,07,22,06,58,19.50
2006,07,22,06,59,19.60
2006,07,22,07,00,19.60
2006,07,22,07,01,19.70
2006,07,22,07,02,19.70
2006,07,22,07,03,19.80
2006,07,22,07,04,19.80
2006,07,22,07,05,19.80
2006,07,22,07,06,19.80
2006,07,22,07,07,19.90
2006,07,22,07,08,19.90
2006,07,22,07,09,19.90
2006,07,22,07,10,20.00
2006,07,22,07,11,20.10
2006,07,22,07,12,20.20
2006,07,22,07,13,20.30
2006,07,22,07,14,20.40
2006,07,22,07,15,20.50
2006,07,22,07,16,20.60
2006,07,22,07,17,20.60
2006,07,22,07,18,20.70
2006,07,22,07,19,20.80
2006,07,22,07,20,20.90
2006,07,22,07,21,21.00
2006,07,22,07,22,21.10
2006,07,22,07,23,21.20
2006,07,22,07,24,21.20
2006,07,22,07,25,21.30
2006,07,22,07,26,21.30
2006,07,22,07,27,21.40
2006,07,22,07,28,21.40
2006,07,22,07,29,21.50
2006,07,22,07,30,21.60
2006,07,22,07,31,21.60
2006,07,22,07,32,21.60
2006,07,22,07,33,21.60
2006,07,22,07,34,21.60
2006,07,22,07,35,21.60
2006,07,22,07,36,21.70
2006,07,22,07,37,21.70
2006,07,22,07,38,21.80
2006,07,22,07,39,21.80
2006,07,22,07,40,21.90
2006,07,22,07,41,22.00
2006,07,22,07,42,22.00
2006,07,22,07,43,22.10
2006,07,22,07,44,22.20
2006,07,22,07,45,22.30
2006,07,22,07,46,22.30
2006,07,22,07,47,22.50
2006,07,22,07,48,22.50
2006,07,22,07,49,22.60
2006,07,22,07,50,22.70
2006,07,22,07,51,22.70
2006,07,22,07,52,22.80
2006,07,22,07,53,22.90
2006,07,22,07,54,22.90
2006,07,22,07,55,22.90
2006,07,22,07,56,22.90
2006,07,22,07,57,22.90
2006,07,22,07,58,22.90
2006,07,22,07,59,22.90
2006,07,22,08,00,22.90
2006,07,22,08,01,22.90
2006,07,22,08,02,22.90
2006,07,22,08,03,22.90
2006,07,22,08,04,22.90
2006,07,22,08,05,22.90
2006,07,22,08,06,22.90
2006,07,22,08,07,22.90
2006,07,22,08,08,22.90
2006,07,22,08,09,22.90
2006,07,22,08,10,22.90
2006,07,22,08,11,22.90
2006,07,22,08,12,22.90
2006,07,22,08,13,22.90
2006,07,22,08,14,22.90
2006,07,22,08,15,22.90
2006,07,22,08,16,22.90
2006,07,22,08,17,22.90
2006,07,22,08,18,22.90
2006,07,22,08,19,22.90
2006,07,22,08,20,22.90
2006,07,22,08,21,22.90
2006,07,22,08,22,22.90
2006,07,22,08,23,22.90
2006,07,22,08,24,23.10
2006,07,22,08,25,23.10
2006,07,22,08,26,23.10
2006,07,22,08,27,23.20
2006,07,22,08,28,23.30
2006,07,22,08,29,23.30
2006,07,22,08,30,23.30
2006,07,22,08,31,23.30
2006,07,22,08,32,23.40
2006,07,22,08,33,23.40
2006,07,22,08,34,23.50
2006,07,22,08,35,23.60
2006,07,22,08,36,23.70
2006,07,22,08,37,23.70
2006,07,22,08,38,23.70
2006,07,22,08,39,23.80
2006,07,22,08,40,24.00
2006,07,22,08,41,24.10
2006,07,22,08,42,24.20
2006,07,22,08,43,24.30
2006,07,22,08,44,24.40
2006,07,22,08,45,24.50
2006,07,22,08,46,24.50
2006,07,22,08,47,24.70
2006,07,22,08,48,24.80
2006,07,22,08,49,25.00
2006,07,22,08,50,25.20
2006,07,22,08,51,25.40
2006,07,22,08,52,25.50
2006,07,22,08,53,25.60
2006,07,22,08,54,25.70
2006,07,22,08,55,25.90
2006,07,22,08,56,26.10
2006,07,22,08,57,26.30
2006,07,22,08,58,26.50
2006,07,22,08,59,26.60
2006,07,22,09,00,26.60
2006,07,22,09,01,26.70
2006,07,22,09,02,26.70
2006,07,22,09,03,26.80
2006,07,22,09,04,26.80
2006,07,22,09,05,26.90
2006,07,22,09,06,27.00
2006,07,22,09,07,27.10
2006,07,22,09,08,27.20
2006,07,22,09,09,27.30
2006,07,22,09,10,27.30
2006,07,22,09,11,27.30
2006,07,22,09,12,27.30
2006,07,22,09,13,27.30
2006,07,22,09,14,27.30
2006,07,22,09,15,27.20
2006,07,22,09,16,27.20
2006,07,22,09,17,27.20
2006,07,22,09,18,27.20
2006,07,22,09,19,27.30
2006,07,22,09,20,27.30
2006,07,22,09,21,27.30
2006,07,22,09,22,27.40
2006,07,22,09,23,27.50
2006,07,22,09,24,27.60
2006,07,22,09,25,27.60
2006,07,22,09,26,27.60
2006,07,22,09,27,27.60
2006,07,22,09,28,27.70
2006,07,22,09,29,27.70
2006,07,22,09,30,27.70
2006,07,22,09,31,27.60
2006,07,22,09,32,27.30
2006,07,22,09,33,27.00
2006,07,22,09,34,26.50
2006,07,22,09,35,25.70
2006,07,22,09,36,25.30
2006,07,22,09,37,25.00
2006,07,22,09,38,24.80
2006,07,22,09,39,24.80
2006,07,22,09,40,24.70
2006,07,22,09,41,24.60
2006,07,22,09,42,24.50
2006,07,22,09,43,24.50
2006,07,22,09,44,24.50
2006,07,22,09,45,24.60
2006,07,22,09,46,24.60
2006,07,22,09,47,24.70
2006,07,22,09,48,24.90
2006,07,22,09,49,25.00
2006,07,22,09,50,25.10
2006,07,22,09,51,25.30
2006,07,22,09,52,25.40
2006,07,22,09,53,25.50
2006,07,22,09,54,25.60
2006,07,22,09,55,25.60
2006,07,22,09,56,25.70
2006,07,22,09,57,25.70
2006,07,22,09,58,25.70
2006,07,22,09,59,25.80
2006,07,22,10,00,25.80
2006,07,22,10,01,25.70
2006,07,22,10,02,25.70
2006,07,22,10,03,25.70
2006,07,22,10,04,25.80
2006,07,22,10,05,25.90
2006,07,22,10,06,26.10
2006,07,22,10,07,26.30
2006,07,22,10,08,26.50
2006,07,22,10,09,26.60
2006,07,22,10,10,26.90
2006,07,22,10,11,27.10
2006,07,22,10,12,27.20
2006,07,22,10,13,27.30
2006,07,22,10,14,27.30
2006,07,22,10,15,27.30
2006,07,22,10,16,27.30
2006,07,22,10,17,27.50
2006,07,22,10,18,27.60
2006,07,22,10,19,27.60
2006,07,22,10,20,27.60
2006,07,22,10,21,27.60
2006,07,22,10,22,27.60
2006,07,22,10,23,27.60
2006,07,22,10,24,27.60
2006,07,22,10,25,27.60
2006,07,22,10,26,27.70
2006,07,22,10,27,27.70
2006,07,22,10,28,27.70
2006,07,22,10,29,27.70
2006,07,22,10,30,27.70
2006,07,22,10,31,27.90
2006,07,22,10,32,27.90
2006,07,22,10,33,27.90
2006,07,22,10,34,27.90
2006,07,22,10,35,27.90
2006,07,22,10,36,27.90
2006,07,22,10,37,27.70
2006,07,22,10,38,27.70
2006,07,22,10,39,27.50
2006,07,22,10,40,27.40
2006,07,22,10,41,27.30
2006,07,22,10,42,27.40
2006,07,22,10,43,27.50
2006,07,22,10,44,27.60
2006,07,22,10,45,27.80
2006,07,22,10,46,27.90
2006,07,22,10,47,28.00
2006,07,22,10,48,28.00
2006,07,22,10,49,28.00
2006,07,22,10,50,28.00
2006,07,22,10,51,28.00
2006,07,22,10,52,28.00
2006,07,22,10,53,27.90
2006,07,22,10,54,27.80
2006,07,22,10,55,27.50
2006,07,22,10,56,27.40
2006,07,22,10,57,27.30
2006,07,22,10,58,27.30
2006,07,22,10,59,27.30
2006,07,22,11,00,27.20
2006,07,22,11,01,27.10
2006,07,22,11,02,27.10
2006,07,22,11,03,27.10
2006,07,22,11,04,27.10
2006,07,22,11,05,27.00
2006,07,22,11,06,26.80
2006,07,22,11,07,26.60
2006,07,22,11,08,26.40
2006,07,22,11,09,26.30
2006,07,22,11,10,26.20
2006,07,22,11,11,26.20
2006,07,22,11,12,26.30
2006,07,22,11,13,26.30
2006,07,22,11,14,26.30
2006,07,22,11,15,26.50
2006,07,22,11,16,26.60
2006,07,22,11,17,26.60
2006,07,22,11,18,26.60
2006,07,22,11,19,26.70
2006,07,22,11,20,26.80
2006,07,22,11,21,27.00
2006,07,22,11,22,27.10
2006,07,22,11,23,27.30
2006,07,22,11,24,27.20
2006,07,22,11,25,27.20
2006,07,22,11,26,27.20
2006,07,22,11,27,27.20
2006,07,22,11,28,27.30
2006,07,22,11,29,27.30
2006,07,22,11,30,27.40
2006,07,22,11,31,27.40
2006,07,22,11,32,27.40
2006,07,22,11,33,27.50
2006,07,22,11,34,27.60
2006,07,22,11,35,27.80
2006,07,22,11,36,28.00
2006,07,22,11,37,28.10
2006,07,22,11,38,28.10
2006,07,22,11,39,28.10
2006,07,22,11,40,28.10
2006,07,22,11,41,28.00
2006,07,22,11,42,28.10
2006,07,22,11,43,28.10
2006,07,22,11,44,28.20
2006,07,22,11,45,28.20
2006,07,22,11,46,28.30
2006,07,22,11,47,28.50
2006,07,22,11,48,28.60
2006,07,22,11,49,28.70
2006,07,22,11,50,28.60
2006,07,22,11,51,28.40
2006,07,22,11,52,28.40
2006,07,22,11,53,28.40
2006,07,22,11,54,28.50
2006,07,22,11,55,28.70
2006,07,22,11,56,28.90
2006,07,22,11,57,28.90
2006,07,22,11,58,28.90
2006,07,22,11,59,28.80
2006,07,22,12,00,28.70
2006,07,22,12,01,28.70
2006,07,22,12,02,28.70
2006,07,22,12,03,28.70
2006,07,22,12,04,28.80
2006,07,22,12,05,29.00
2006,07,22,12,06,29.10
2006,07,22,12,07,29.20
2006,07,22,12,08,29.20
2006,07,22,12,09,29.30
2006,07,22,12,10,29.30
2006,07,22,12,11,29.30
2006,07,22,12,12,29.40
2006,07,22,12,13,29.40
2006,07,22,12,14,29.40
2006,07,22,12,15,29.40
2006,07,22,12,16,29.40
2006,07,22,12,17,29.50
2006,07,22,12,18,29.50
2006,07,22,12,19,29.50
2006,07,22,12,20,29.50
2006,07,22,12,21,29.50
2006,07,22,12,22,29.50
2006,07,22,12,23,29.50
2006,07,22,12,24,29.40
2006,07,22,12,25,29.30
2006,07,22,12,26,29.10
2006,07,22,12,27,28.90
2006,07,22,12,28,29.00
2006,07,22,12,29,29.20
2006,07,22,12,30,29.10
2006,07,22,12,31,29.10
2006,07,22,12,32,29.20
2006,07,22,12,33,29.30
2006,07,22,12,34,29.30
2006,07,22,12,35,29.30
2006,07,22,12,36,29.20
2006,07,22,12,37,29.20
2006,07,22,12,38,29.20
2006,07,22,12,39,29.00
2006,07,22,12,40,28.90
2006,07,22,12,41,28.80
2006,07,22,12,42,28.80
2006,07,22,12,43,28.90
2006,07,22,12,44,28.90
2006,07,22,12,45,28.90
2006,07,22,12,46,28.90
2006,07,22,12,47,28.90
2006,07,22,12,48,28.90
2006,07,22,12,49,28.90
2006,07,22,12,50,28.90
2006,07,22,12,51,29.00
2006,07,22,12,52,29.30
2006,07,22,12,53,29.50
2006,07,22,12,54,29.60
2006,07,22,12,55,29.70
2006,07,22,12,56,29.90
2006,07,22,12,57,30.00
2006,07,22,12,58,30.20
2006,07,22,12,59,30.30
2006,07,22,13,00,30.30
2006,07,22,13,01,30.30
2006,07,22,13,02,30.20
2006,07,22,13,03,30.20
2006,07,22,13,04,30.20
2006,07,22,13,05,30.20
2006,07,22,13,06,30.30
2006,07,22,13,07,30.50
2006,07,22,13,08,30.60
2006,07,22,13,09,30.70
2006,07,22,13,10,31.00
2006,07,22,13,11,31.20
2006,07,22,13,12,31.30
2006,07,22,13,13,31.40
2006,07,22,13,14,31.50
2006,07,22,13,15,31.60
2006,07,22,13,16,31.60
2006,07,22,13,17,31.60
2006,07,22,13,18,31.70
2006,07,22,13,19,31.80
2006,07,22,13,20,31.80
2006,07,22,13,21,31.80
2006,07,22,13,22,31.80
2006,07,22,13,23,31.90
2006,07,22,13,24,32.10
2006,07,22,13,25,32.30
2006,07,22,13,26,32.40
2006,07,22,13,27,32.40
2006,07,22,13,28,32.40
2006,07,22,13,29,32.40
2006,07,22,13,30,32.50
2006,07,22,13,31,32.50
2006,07,22,13,32,32.50
2006,07,22,13,33,32.50
2006,07,22,13,34,32.40
2006,07,22,13,35,32.40
2006,07,22,13,36,32.40
2006,07,22,13,37,32.40
2006,07,22,13,38,32.60
2006,07,22,13,39,32.80
2006,07,22,13,40,32.90
2006,07,22,13,41,33.00
2006,07,22,13,42,33.10
2006,07,22,13,43,33.10
2006,07,22,13,44,33.20
2006,07,22,13,45,33.30
2006,07,22,13,46,33.30
2006,07,22,13,47,33.30
2006,07,22,13,48,33.40
2006,07,22,13,49,33.40
2006,07,22,13,50,33.40
2006,07,22,13,51,33.20
2006,07,22,13,52,33.20
2006,07,22,13,53,33.30
2006,07,22,13,54,33.10
2006,07,22,13,55,32.60
2006,07,22,13,56,31.90
2006,07,22,13,57,31.00
2006,07,22,13,58,30.50
2006,07,22,13,59,29.90
2006,07,22,14,00,29.60
2006,07,22,14,01,29.40
2006,07,22,14,02,29.30
2006,07,22,14,03,29.30
2006,07,22,14,04,29.20
2006,07,22,14,05,29.20
2006,07,22,14,06,29.20
2006,07,22,14,07,29.20
2006,07,22,14,08,29.20
2006,07,22,14,09,29.20
2006,07,22,14,10,29.20
2006,07,22,14,11,29.20
2006,07,22,14,12,29.30
2006,07,22,14,13,29.30
2006,07,22,14,14,29.30
2006,07,22,14,15,29.10
2006,07,22,14,16,29.00
2006,07,22,14,17,28.90
2006,07,22,14,18,28.80
2006,07,22,14,19,28.70
2006,07,22,14,20,28.50
2006,07,22,14,21,28.30
2006,07,22,14,22,28.00
2006,07,22,14,23,27.80
2006,07,22,14,24,27.80
2006,07,22,14,25,27.60
2006,07,22,14,26,27.40
2006,07,22,14,27,27.20
2006,07,22,14,28,27.00
2006,07,22,14,29,26.90
2006,07,22,14,30,26.80
2006,07,22,14,31,26.70
2006,07,22,14,32,26.70
2006,07,22,14,33,26.80
2006,07,22,14,34,26.80
2006,07,22,14,35,26.90
2006,07,22,14,36,26.90
2006,07,22,14,37,26.90
2006,07,22,14,38,26.90
2006,07,22,14,39,26.90
2006,07,22,14,40,26.80
2006,07,22,14,41,26.70
2006,07,22,14,42,26.60
2006,07,22,14,43,26.60
2006,07,22,14,44,26.60
2006,07,22,14,45,26.60
2006,07,22,14,46,26.60
2006,07,22,14,47,26.70
2006,07,22,14,48,26.70
2006,07,22,14,49,26.70
2006,07,22,14,50,26.80
2006,07,22,14,51,26.80
2006,07,22,14,52,26.90
2006,07,22,14,53,26.90
2006,07,22,14,54,27.10
2006,07,22,14,55,27.10
2006,07,22,14,56,27.10
2006,07,22,14,57,27.20
2006,07,22,14,58,27.30
2006,07,22,14,59,27.30
2006,07,22,15,00,27.50
2006,07,22,15,01,27.60
2006,07,22,15,02,27.70
2006,07,22,15,03,27.80
2006,07,22,15,04,27.90
2006,07,22,15,05,28.00
2006,07,22,15,06,28.00
2006,07,22,15,07,28.30
2006,07,22,15,08,28.30
2006,07,22,15,09,28.40
2006,07,22,15,10,28.50
2006,07,22,15,11,28.60
2006,07,22,15,12,28.70
2006,07,22,15,13,28.90
2006,07,22,15,14,29.00
2006,07,22,15,15,29.10
2006,07,22,15,16,29.30
2006,07,22,15,17,29.30
2006,07,22,15,18,29.30
2006,07,22,15,19,29.30
2006,07,22,15,20,29.40
2006,07,22,15,21,29.40
2006,07,22,15,22,29.40
2006,07,22,15,23,29.50
2006,07,22,15,24,29.50
2006,07,22,15,25,29.60
2006,07,22,15,26,29.60
2006,07,22,15,27,29.60
2006,07,22,15,28,29.60
2006,07,22,15,29,29.70
2006,07,22,15,30,29.80
2006,07,22,15,31,29.80
2006,07,22,15,32,29.70
2006,07,22,15,33,29.60
2006,07,22,15,34,29.60
2006,07,22,15,35,29.60
2006,07,22,15,36,29.60
2006,07,22,15,37,29.60
2006,07,22,15,38,29.70
2006,07,22,15,39,29.70
2006,07,22,15,40,29.70
2006,07,22,15,41,29.70
2006,07,22,15,42,29.70
2006,07,22,15,43,29.70
2006,07,22,15,44,29.70
2006,07,22,15,45,29.70
2006,07,22,15,46,29.80
2006,07,22,15,47,29.90
2006,07,22,15,48,30.10
2006,07,22,15,49,30.40
2006,07,22,15,50,30.80
2006,07,22,15,51,31.30
2006,07,22,15,52,31.60
2006,07,22,15,53,31.90
2006,07,22,15,54,32.00
2006,07,22,15,55,32.20
2006,07,22,15,56,32.40
2006,07,22,15,57,32.50
2006,07,22,15,58,32.60
2006,07,22,15,59,32.60
2006,07,22,16,00,32.60
2006,07,22,16,01,32.60
2006,07,22,16,02,32.70
2006,07,22,16,03,32.80
2006,07,22,16,04,32.90
2006,07,22,16,05,32.90
2006,07,22,16,06,32.90
2006,07,22,16,07,32.90
2006,07,22,16,08,32.80
2006,07,22,16,09,32.60
2006,07,22,16,10,32.50
2006,07,22,16,11,32.40
2006,07,22,16,12,32.40
2006,07,22,16,13,32.50
2006,07,22,16,14,32.50
2006,07,22,16,15,32.60
2006,07,22,16,16,32.80
2006,07,22,16,17,32.80
2006,07,22,16,18,32.80
2006,07,22,16,19,32.80
2006,07,22,16,20,32.90
2006,07,22,16,21,33.00
2006,07,22,16,22,33.00
2006,07,22,16,23,32.90
2006,07,22,16,24,32.90
2006,07,22,16,25,32.90
2006,07,22,16,26,32.90
2006,07,22,16,27,32.90
2006,07,22,16,28,32.90
2006,07,22,16,29,32.70
2006,07,22,16,30,32.60
2006,07,22,16,31,32.50
2006,07,22,16,32,32.50
2006,07,22,16,33,32.40
2006,07,22,16,34,32.40
2006,07,22,16,35,32.40
2006,07,22,16,36,32.50
2006,07,22,16,37,32.40
2006,07,22,16,38,32.30
2006,07,22,16,39,32.20
2006,07,22,16,40,32.10
2006,07,22,16,41,32.10
2006,07,22,16,42,32.00
2006,07,22,16,43,32.10
2006,07,22,16,44,32.20
2006,07,22,16,45,32.20
2006,07,22,16,46,32.20
2006,07,22,16,47,32.20
2006,07,22,16,48,32.10
2006,07,22,16,49,32.10
2006,07,22,16,50,32.10
2006,07,22,16,51,32.20
2006,07,22,16,52,32.30
2006,07,22,16,53,32.20
2006,07,22,16,54,32.20
2006,07,22,16,55,32.10
2006,07,22,16,56,32.10
2006,07,22,16,57,32.00
2006,07,22,16,58,31.90
2006,07,22,16,59,31.80
2006,07,22,17,00,31.80
2006,07,22,17,01,31.70
2006,07,22,17,02,31.70
2006,07,22,17,03,31.70
2006,07,22,17,04,31.70
2006,07,22,17,05,31.80
2006,07,22,17,06,31.80
2006,07,22,17,07,31.90
2006,07,22,17,08,32.00
2006,07,22,17,09,32.10
2006,07,22,17,10,32.10
2006,07,22,17,11,32.00
2006,07,22,17,12,31.90
2006,07,22,17,13,31.80
2006,07,22,17,14,31.70
2006,07,22,17,15,31.70
2006,07,22,17,16,31.60
2006,07,22,17,17,31.60
2006,07,22,17,18,31.60
2006,07,22,17,19,31.70